Miscellaneous Local Product
Issued by NWS North Platte, NE

Home | Current Version | Previous Version | Graphics & Text | Print | Product List | Glossary On
Versions: 1 2 3 4 5 6 7 8 9 10 11 12 13 14 15 16 17 18 19 20 21 22 23 24 25 26 27 28 29 30 31 32 33 34 35 36 37 38 39 40 41 42 43 44 45 46 47 48 49 50
000
AXUS43 KLBF 031410
MISLBF


WESTERN AND NORTH CENTRAL NEBRASKA HOURLY WEATHER ROUNDUP
NATIONAL WEATHER SERVICE NORTH PLATTE NE
800 AM CST TUE MAR 03 2015

***STATIONS NOT REPORTING VARIABLES SUCH AS SKY/WEATHER OR
PRESSURE ARE PROVIDED BY THE NEBRASKA DEPARTMENT OF
ROADS...RAWS...AND APRS NETWORKS...AND ARE NOT UNDER
NATIONAL WEATHER SERVICE QUALITY CONTROL***

...OBSERVATIONS IN AND NEAR THE EASTERN PANHANDLE OF NEBRASKA...

CITY           SKY/WX    TMP DP  RH WIND       PRES   REMARKS
PINE RIDGE     LGT SNOW  15   8  73 N18G28    29.93R WCI  -2
CHADRON        CLOUDY    16  11  80 N23       29.94R HAZE    WCI  -2
ALLIANCE       LGT SNOW  16  11  80 N23G32    29.87R WCI  -2
SIDNEY         CLOUDY    20  16  84 N23G31    29.83R WCI   3
WHITECLAY        N/A     14   8  76 S24         N/A  WCI  -5
CRESCENT LAKE    N/A     16  10  75 N22G35      N/A  WCI  -1
LISCO            N/A     21  10  63 W18         N/A  WCI   6
BIG SPRINGS      N/A     26  22  84 N12         N/A  WCI  16
LEWELLEN         N/A     19  11  69 SW6         N/A  WCI  11
$$

...OBSERVATIONS IN NORTH CENTRAL NEBRASKA...

CITY           SKY/WX    TMP DP  RH WIND       PRES   REMARKS
VALENTINE      LGT SNOW  17  11  77 N26G38    29.89R WCI  -2
THEDFORD       LGT SNOW  20  15  79 N25G39    29.84R WCI   3
AINSWORTH      LGT SNOW  18  13  81 N31G41    29.83R WCI  -2
O`NEILL        LGT SNOW  28  24  87 N33G39    29.76R WCI  11
ORD            CLOUDY    30  22  72 NW13      29.72R WCI  20
BROKEN BOW     CLOUDY    29  23  78 N36G49    29.73R WCI  12
BROWNLEE         N/A     16  10  79 N35         N/A  WCI  -6
SPRINGVIEW       N/A     18  13  79 NW16G35     N/A  WCI   3
BREWSTER         N/A     25  19  77 E31         N/A  WCI   7
ROSE             N/A     25  23  93 W28         N/A  WCI   8
NEWPORT          N/A     26  23  87 NW30        N/A  WCI  10
SARGENT          N/A     26  20  77 NW12G26     N/A  WCI  16
COMSTOCK         N/A     35  30  81 NW17        N/A  WCI  25
CHAMBERS         N/A     26  20  77 N26         N/A  WCI  10
EWING            N/A     30  26  83 NW12G18     N/A  WCI  20
$$

...OBSERVATIONS IN SOUTHWEST NEBRASKA AND FAR NORTHEAST COLORADO...

CITY           SKY/WX    TMP DP  RH WIND       PRES   REMARKS
WRAY           CLOUDY    32  29  87 N20G26    29.78R WCI  20
IMPERIAL         N/A     31  24  75 N33G43    29.78R WCI  15
OGALLALA       CLOUDY    25  21  83 N23G37    29.79R WCI  10
NORTH PLATTE   CLOUDY    27  18  69 N25G40    29.79R WCI  12
MCCOOK         CLOUDY    31  26  82 W8        29.75R HAZE    WCI  23
LEXINGTON      CLOUDY    31  27  83 NW12      29.74R WCI  22
PAXTON           N/A     27  23  85 N12         N/A  WCI  17
BRADY            N/A     28  22  76 SW7G17      N/A  WCI  21
GOTHENBURG       N/A     30  24  77 NW21        N/A  WCI  17
CALLAWAY         N/A     25  21  83 N24         N/A  WCI  10
$$

...NORTH PLATTE AREA...

CITY           SKY/WX    TMP DP  RH WIND       PRES   REMARKS
AIRPORT        CLOUDY    27  18  69 N25G40    29.79R WCI  12
DOWNTOWN         N/A     26  19  74 N14G26      N/A  WCI  14
$$

...SOME WEATHER OBSERVATIONS FROM AROUND THE REGION...

CITY           SKY/WX    TMP DP  RH WIND       PRES   REMARKS
DENVER         MOCLDY    24  22  91 NE20      29.77R WCI  10
LARAMIE        FLURRIES  14   9  80 N7        29.72R WCI   4
CHEYENNE       LGT SNOW  14   8  77 N24G32    29.77R WCI  -5
SCOTTSBLUFF    CLOUDY    19  12  74 N17       29.90R WCI   4
RAPID CITY     CLOUDY    13   7  77 NW32G40   29.96S WCI  -9
PIERRE         CLOUDY    14   7  73 N26G38    29.94R BLWGSNOWWCI  -6
WINNER         SNOW      18  12  77 N23G35    29.89R VSB 1/2 WCI   0
SIOUX FALLS    LGT SNOW  25  22  88 W5        29.70R VSB 1   WCI  19
OMAHA          FRZ DRZL  32  31  96 NW3       29.68R VSB 1
GRAND ISLAND   CLOUDY    29  23  78 W10       29.73R WCI  20
KANSAS CITY    DRIZZLE   38  37  97 SW17      29.70S WCI  28
WICHITA        CLOUDY    37  34  89 S17       29.75S WCI  27
HAYS           CLOUDY    36  27  69 NW16      29.72R WCI  26
LIBERAL        CLOUDY    37  32  81 SW13      29.76R WCI  29
GOODLAND       CLOUDY    31  29  92 N16       29.76R FOG     WCI  20
$$



USA.gov is the U.S. government's official web portal to all federal, state and local government web resources and services.